DECAYED
Showing default

FLOCK 4Y 33, 55042 (Decayed)

Orbit data source: Space-Track

FLOCK 4Y 33, 55042 was a payload satellite owned by Planet (US) in LEO that was launched on Tue, 03 Jan 2023 UTC via an FALCON 9 launch vehicle from the Air Force Eastern Test Range (AFETR). Payload-class satellites include a variety of spacecraft equipped with specific instruments for various scientific and technological missions. These include communications satellites like Starlink; space stations such as the ISS; scientific satellites like the Hubble; Earth observation satellites from companies like Planet Labs, Umbra, and HawkEye 360; GPS; miniature CubeSats for education and research; and military/defense satellites.

Not visible in the next 10 days
Identifier
55042, 2023-001AK
Orbit
Decayed
Country
Flag of USUS
Related business
Manufacturer
Planet
Mission
Decayed Commercial Imaging
Bus & Motor
CUBESAT 3U, Unknown motor
Mass
5.7 kg wet, 5.7 kg dry
Launch date (UTC)
2023-01-03 (3 years ago)
Launch vehicle
FALCON 9
Launch site
Air Force Eastern Test Range (AFETR)
Object type
Payload
Rocket body
Debris
Shape & HBR
Box + 2 Pan, 1.0 m
Radar Cross Section
0.108 m², Small (<0.1 m²)

Expand to show TLE details & history
Last TLE update: 8 months ago

TLE from 8 months ago
0 FLOCK 4Y 33
1 55042U 23001AK  25266.88585424  .07483062  24357-5  22382-2 0  9992
2 55042  97.3363 345.2191 0014044 273.1222  86.8463 16.26800451152529
Epoch: 2025-09-23T21:15Z
TLE epoch observation values (Epoch: 2025-09-23T21:15:37.806Z)
Latitude
-0.00007°
Longitude
23.34232°
Altitude
203.892 km
Speed
7.784 km/s
True Right ascension
23h 00m 52s
True Declination
0° 00' 00"
Sunlit
Object was in full shadow at epoch
Visualization orbit readout
Latitude
Unknown
Longitude
Unknown
Altitude
Unknown
Speed
Unknown
Apparent Right ascension
Unknown
Apparent Declination
Unknown
Sunlit
N/A
Visualization observer readout
Local Sidereal Time
22:53:12
Azimuth
Unknown
Elevation
Unknown
Doppler factor
Unknown
Orbital elements
Apogee altitude
207.21 km
Perigee altitude
188.739 km
Semi-major axis
6,576.111 km
Eccentricity
0.0014
Inclination
97.3363°
RAAN
345.2191°
Arg. of periapsis
273.1222°
True anomaly
87.007°
Mean anomaly
86.8463°
Eccentric anomaly
86.92665°
Mean motion
4.06995 °/min
Orbital period
88.45 mins
BSTAR
0.0022382
Loading maneuver chart data...
Computing Atmospheric mass density...

Documentation

Showing up to 5 results
|